Location: Nairn
(57.5833°N, 3.8667°W)
Time: 01:57:03
(UTC+00:00)

ATLAS 3B R/B - Pass Details

Date: 07 August 2020
Orbit: 1016 x 1179 km, 63.8° (Epoch: 17 September)

Event Time Altitude Azimuth Distance (km) Brightness Sun altitude
Rises 03:29:25 0° 270° (W) 3,761 5.1 -6.5°
Reaches altitude 10° 03:32:06 10° 276° (W) 2,818 4.5 -6.3°
Maximum altitude 03:38:33 52° 352° (N) 1,276 3.4 -5.6°
Drops below altitude 10° 03:45:13 10° 69° (ENE) 2,901 6.4 -5.0°
Sets 03:48:00 0° 74° (ENE) 3,881 7.0 -4.7°
